CZ-4C DEB, 40114

Orbit data source: Space-Track

CZ-4C DEB, 40114 is space debris in LEO originally from a launch on Sat, 09 Aug 2014 UTC launched from the Jiuquan Satellite Launch Center, China (JSC). Debris objects in space refer to the collection of defunct objects orbiting the Earth. Examples of debris include non-operational satellites, rocket bodies, and fragments generated from explosions, collisions, or faulty payload assembly.

Loading next visibility...
Identifier
40114, 2014-047F
Orbit
LEO
Country
Flag of CNCN / PRC
Related business
Manufacturer
CAST
Mission
Spacecraft
Bus & Motor
Unknown
Mass
Unknown
Launch date (UTC)
2014-08-09 (11 years ago)
Launch vehicle
Unknown
Launch site
Jiuquan Satellite Launch Center, China (JSC)
Object type
Payload
Rocket body
Debris
Shape & HBR
Unknown shape, 2.2 m
Radar Cross Section
Large (>1 m²)

Expand to show TLE details & history
Last TLE update: 14 hours ago

TLE from 14 hours ago
0 CZ-4C DEB
1 40114U 14047F   25341.24456744  .00000185  00000-0  31017-3 0  9996
2 40114  63.3796 181.0192 0373927  14.1442 346.9717 13.44397552556102
Epoch: 2025-12-07T05:52Z
TLE epoch observation values (Epoch: 2025-12-07T05:52:10.626Z)
Latitude
Longitude
16.71419°
Altitude
823.07 km
Speed
7.576 km/s
True Right ascension
12h 04m 04s
True Declination
0° 00' 00"
Sunlit
Object was in daylight at epoch
Visualization orbit readout
Latitude
Unknown
Longitude
Unknown
Altitude
Unknown
Speed
Unknown
Apparent Right ascension
Unknown
Apparent Declination
Unknown
Sunlit
N/A
Visualization observer readout
Local Sidereal Time
18:07:48
Azimuth
Unknown
Elevation
Unknown
Doppler factor
Unknown
Orbital elements
Apogee altitude
1,371.093 km
Perigee altitude
812.453 km
Semi-major axis
7,469.91 km
Eccentricity
0.03739
Inclination
63.3796°
RAAN
181.0192°
Arg. of periapsis
14.1442°
True anomaly
345.95981°
Mean anomaly
346.9717°
Eccentric anomaly
346.47048°
Mean motion
3.36179 °/min
Orbital period
107.09 mins
BSTAR
0.00031017
Loading maneuver chart data...
Computing Atmospheric mass density...
Loading historical data...
Loading historical data...
Loading historical data...
Loading historical data...
Loading historical data...
Loading historical data...
Loading historical data...

Documentation

Showing up to 5 results
|